Voltar ao catálogo

HULIANWANG DIGUI-180

AtivoCiênciaLEO
NORAD 100205·PAYLOAD·🇨🇳 China

Lançado Aug 4, 2026 de Wenchang Space Launch Site

Loading…

Próximas Passagens (próximas 24 horas)

TLE

AtualizadoSource: Space-Track

Época: Sep 14, 2026, 12:55 UTC

1 A0205U 26176C   26257.53844421 -.00000092  00000-0  69945-4 0  9991
2 A0205  49.9882 245.4785 0000231   0.0332   0.0540 13.29327073  5504

Acompanhe HULIANWANG DIGUI-180 em tempo real com AllMySat

Download on the App Store